Home > Weather > Summerside > Past weeks

Flag for Canada Past Weather in Summerside, Prince Edward Island, Canada — Yesterday and Last 2 Weeks

Now
81 °F

Warm.


Feels Like: 81 °F
Forecast: N/A
Wind: 7 mph from Southwest

Location: Summerside Airport

Current Time: Jul 1, 2016 at 5:48:02 PM

Latest Report: Jul 1, 2016 at 5:00 PM


Visibility: N/A

Pressure: 29.98 "Hg

Humidity: 47%

Dew Point: 58 °F

Location of SummersideLocation

Past Weather in Summerside — Graph

°F

Summerside Temperature Yesterday

Maximum temperature yesterday: 77 °F (at 5:00 PM)
Minimum temperature yesterday: 61 °F (at 11:00 PM)
Average temperature yesterday: 69 °F

High & Low Weather Summary for the Past Weeks

 TemperatureHumidityPressure
High80 °F (Jul 1, 3:00 PM)100% (Jul 1, 5:00 AM)30.22 "Hg (Jul 1, 5:00 AM)
Low44 °F (Jun 17, 1:00 AM)30% (Jun 18, 2:00 PM)29.59 "Hg (Jun 21, 3:00 PM)
Average64 °F70%29.96 "Hg
* Reported Jun 16 4:00 PM — Jul 1 4:00 PM, Summerside, Weather by CustomWeather, © 2016

Note: Actual official high and low records may vary slightly from our data, if they occured in-between our weather recording intervals... More about our weather records

Advertising

Summerside Weather History for the Previous 24 Hours

Scroll right to see more
 ConditionsComfort  
Time TempWeatherWind HumidityBarometerVisibility
4:00 PM
Fri, Jul 1
80 °FWarm.7 mph45%29.98 "HgN/A
3:00 PM80 °FWarm.7 mph45%29.98 "HgN/A
2:00 PM78 °FWarm.9 mph50%29.99 "HgN/A
1:00 PM77 °FMild.8 mph59%30.00 "HgN/A
12:00 PM75 °FMild.9 mph64%30.01 "HgN/A
11:00 AM71 °FMild.10 mph73%30.01 "HgN/A
10:00 AM68 °FMild.9 mph76%30.01 "HgN/A
9:00 AM66 °FMild.9 mph80%30.01 "HgN/A
8:00 AM64 °FMild.7 mph87%30.00 "HgN/A
7:00 AM62 °FCool.6 mph90%29.99 "HgN/A
6:00 AM58 °FCool.6 mph95%29.98 "HgN/A
5:00 AM56 °FCool.7 mph100%29.97 "HgN/A
4:00 AM59 °FCool.7 mph95%29.96 "HgN/A
3:00 AM60 °FCool.6 mph89%29.95 "HgN/A
2:00 AM60 °FCool.7 mph94%29.95 "HgN/A
1:00 AM60 °FCool.5 mph93%29.94 "HgN/A
12:00 AM61 °FCool.6 mph88%29.93 "HgN/A
11:00 PM
Thu, Jun 30
61 °FCool.5 mph90%29.93 "HgN/A
10:00 PM64 °FMild.3 mph86%29.92 "HgN/A
9:00 PM68 °FMild.6 mph77%29.90 "HgN/A
8:00 PM72 °FMild.9 mph66%29.88 "HgN/A
7:00 PM74 °FMild.10 mph64%29.84 "HgN/A
6:00 PM76 °FMild.13 mph60%29.83 "HgN/A
5:00 PM77 °FMild.14 mph62%29.82 "HgN/A
Weather by CustomWeather, © 2016

See weather overviewHow to use our weather pages